Location: Praha
(50.0830°N, 14.4670°E)
Time: 05:19:08
(UTC+01:00)

ISS - Pass Details

Date: 19 February 2021
Orbit: 417 x 422 km, 51.6° (Epoch: 03 March)

Event Time Altitude Azimuth Distance (km) Brightness Sun altitude
Rises 06:17:01 0° 202° (SSW) 2,348 -0.1 -8.4°
Reaches altitude 10° 06:19:37 10° 181° (S) 1,490 -0.9 -8.0°
Maximum altitude 06:21:49 17° 140° (SE) 1,157 -0.8 -7.6°
Drops below altitude 10° 06:24:02 10° 98° (E) 1,497 0.9 -7.3°
Sets 06:26:39 0° 77° (ENE) 2,366 1.5 -6.9°
